[[{"header":{"parameterUnit":"m.s-1","parameterCategory":1,"la1":30.2991,"la2":30.254,"lo1":-89.0895,"lo2":-89.0444,"dy":0.0017,"dx":0.0017,"nx":28,"ny":28,"refTime":"2026-02-10T09:00:00:Z","depth":0,"parameterNumber":2,"parameterNumberName":"U-component_of_WINDS"},"data":[0,0,0,0,0,0,0,0,0,0,0,0,0,0,0,0,0,0,0,0,0,0,0,0,0,0,0,0,0,0,0,0,0,0,0,0,0,0,0,0,0,0,0,0,0,0,0,0,0,0,0,0,0,0,0,0,0,0,-0.1493,-0.1493,0,-0.1451,-0.145,-0.145,-0.1435,-0.1435,-0.1435,-0.1435,-0.139,-0.1389,-0.1387,0,0,0,0,0,0,0,0,0,0,0,0,0,-0.1561,-0.1559,-0.1493,-0.1493,-0.1492,-0.1451,-0.145,-0.145,-0.1435,-0.1435,-0.1435,-0.1435,-0.1391,-0.1389,-0.1387,0,0,0,0,0,0,0,0,0,0,0,0,0,-0.1526,-0.1559,-0.1493,-0.148,-0.1478,-0.1451,-0.145,-0.1449,-0.1435,-0.1435,-0.1435,-0.1435,-0.1391,-0.1389,-0.1387,-0.137,0,0,-0.1381,-0.138,0,0,0,0,0,0,0,0,-0.1528,-0.1523,-0.1482,-0.1481,-0.1479,-0.1448,-0.1457,-0.1423,-0.1435,-0.1451,-0.1435,-0.1436,-0.1409,-0.1406,-0.1397,-0.1367,-0.1366,-0.1381,-0.138,-0.1379,-0.1378,0,0,0,0,0,0,0,-0.153,-0.1525,-0.1476,-0.1482,-0.148,-0.1476,-0.1471,-0.1451,-0.1429,-0.145,-0.1449,-0.1444,-0.1408,-0.1399,-0.1396,-0.1365,-0.1381,-0.1379,-0.1378,-0.1377,-0.1319,-0.1319,0,0,0,0,0,0,-0.1535,-0.1527,-0.1478,-0.1475,-0.1505,-0.1474,-0.1469,-0.1458,-0.1429,-0.1425,-0.1444,-0.1443,-0.1402,-0.1398,-0.1394,-0.1372,-0.1379,-0.1377,-0.1376,-0.1319,-0.1319,-0.1319,0,0,0,0,0,0,-0.1537,-0.1531,-0.1479,-0.1501,-0.1494,-0.1473,-0.146,-0.1457,-0.1448,-0.1425,-0.1421,-0.1438,-0.1402,-0.1397,-0.1376,-0.137,-0.1376,-0.1374,-0.132,-0.1319,-0.1319,-0.1327,0,0,0,0,0,0,-0.1539,-0.1532,-0.1525,-0.1501,-0.1493,-0.1462,-0.146,-0.1456,-0.1444,-0.1444,-0.1419,-0.1415,-0.1402,-0.1379,-0.1374,-0.1368,-0.1372,-0.132,-0.132,-0.1319,-0.1328,-0.1327,-0.1327,0,0,0,0,0,-0.1541,-0.1528,-0.1525,-0.1519,-0.1484,-0.1462,-0.1457,-0.1443,-0.1444,-0.1437,-0.1422,-0.1416,-0.1372,-0.1377,-0.1371,-0.1364,-0.1321,-0.132,-0.1319,-0.1328,-0.1327,-0.1327,0,0,0,0,0,0,-0.1552,-0.1525,-0.152,-0.15,-0.1483,-0.1459,-0.145,-0.1443,-0.1426,-0.1426,-0.1409,-0.1404,-0.1384,-0.1372,-0.1378,-0.1346,-0.1346,-0.1344,-0.1354,-0.1354,-0.1354,-0.1357,-0.1371,0,0,0,0,0,-0.1552,-0.1536,-0.1514,-0.1497,-0.149,-0.1471,-0.1461,-0.1452,-0.1434,-0.1427,-0.1411,-0.1393,-0.1375,-0.1364,-0.1346,-0.1326,-0.132,-0.1318,-0.1318,-0.1318,-0.1316,-0.1305,-0.1304,-0.1316,-0.1316,-0.1316,0,0,-0.1551,-0.1535,-0.1526,-0.1499,-0.1485,-0.1469,-0.1465,-0.1449,-0.1436,-0.1424,-0.1403,-0.1391,-0.137,-0.135,-0.134,-0.1339,-0.1312,-0.1317,-0.1317,-0.1315,-0.1304,-0.1303,-0.1302,-0.1316,-0.1316,-0.1316,0,0,-0.1542,-0.1528,-0.1514,-0.15,-0.148,-0.1468,-0.1464,-0.1441,-0.1433,-0.1412,-0.1403,-0.1388,-0.1358,-0.1343,-0.1332,-0.1319,-0.1312,-0.1314,-0.1312,-0.1301,-0.13,-0.1299,-0.1295,-0.1293,-0.1312,-0.1312,-0.1312,0,-0.1544,-0.152,-0.1507,-0.149,-0.1479,-0.1468,-0.1453,-0.144,-0.1415,-0.1407,-0.1407,-0.1369,-0.1354,-0.133,-0.1327,-0.1318,-0.1314,-0.1316,-0.1302,-0.1301,-0.1299,-0.1295,-0.1293,-0.1313,-0.1313,-0.1313,-0.1313,0,-0.1524,-0.1507,-0.1498,-0.1474,-0.1462,-0.1446,-0.143,-0.1419,-0.1411,-0.1399,-0.1378,-0.136,-0.1339,-0.1333,-0.1325,-0.1308,-0.1308,-0.1305,-0.1305,-0.1299,-0.1294,-0.1292,-0.1313,-0.1313,-0.1313,-0.1313,0,0,-0.1519,-0.1489,-0.1486,-0.1475,-0.1452,-0.1439,-0.1423,-0.1403,-0.1394,-0.1377,-0.1363,-0.1338,-0.1335,-0.1323,-0.1313,-0.1304,-0.1294,-0.1302,-0.1301,-0.1301,-0.1275,-0.1277,-0.1275,-0.129,-0.129,-0.1289,-0.1276,0,-0.1507,-0.1479,-0.1466,-0.1443,-0.1428,-0.1417,-0.1403,-0.1388,-0.1376,-0.1361,-0.1349,-0.1332,-0.1329,-0.1322,-0.1312,-0.1298,-0.1289,-0.1298,-0.1277,-0.1276,-0.1282,-0.1273,-0.1275,-0.1263,-0.1275,-0.1274,-0.1274,0,-0.1489,-0.1473,-0.1448,-0.1428,-0.1421,-0.1409,-0.1389,-0.1375,-0.1357,-0.135,-0.1336,-0.1327,-0.131,-0.1311,-0.1287,-0.1294,-0.1285,-0.1276,-0.1276,-0.1273,-0.1274,-0.1269,-0.1259,-0.1258,-0.1271,-0.1271,-0.1271,0,-0.1488,-0.146,-0.1442,-0.1433,-0.1409,-0.1401,-0.139,-0.1372,-0.1361,-0.1344,-0.1337,-0.1318,-0.1308,-0.1294,-0.128,-0.1282,-0.1257,-0.1257,-0.125,-0.1251,-0.1245,-0.1245,-0.1233,-0.1239,-0.1239,-0.1239,-0.1239,0,-0.1476,-0.1462,-0.1442,-0.143,-0.1414,-0.14,-0.1384,-0.1372,-0.1357,-0.1343,-0.1333,-0.132,-0.1303,-0.1288,-0.1277,-0.1259,-0.1254,-0.1248,-0.1245,-0.1248,-0.1249,-0.1241,-0.1242,-0.1239,-0.1239,-0.1239,-0.1239,0,-0.1472,-0.1458,-0.1438,-0.1417,-0.1411,-0.14,-0.1381,-0.137,-0.1359,-0.1341,-0.1336,-0.1318,-0.13,-0.1285,-0.1261,-0.1254,-0.1235,-0.1232,-0.1241,-0.124,-0.1234,-0.1235,-0.1216,-0.1213,-0.1221,-0.1221,-0.1221,0,-0.1465,-0.1454,-0.1432,-0.1422,-0.1412,-0.1396,-0.1385,-0.1371,-0.136,-0.1339,-0.133,-0.1312,-0.1296,-0.1268,-0.1252,-0.1234,-0.123,-0.1225,-0.1227,-0.1231,-0.123,-0.1231,-0.1229,-0.1224,-0.1224,-0.1224,-0.1224,0,-0.1454,-0.1448,-0.1433,-0.1415,-0.1402,-0.1388,-0.1373,-0.1365,-0.1348,-0.1336,-0.1318,-0.1306,-0.1282,-0.1264,-0.1244,-0.1233,-0.1226,-0.1224,-0.1221,-0.1225,-0.1231,-0.1227,-0.1241,-0.1224,-0.1224,-0.1224,-0.1224,-0.1224,-0.1448,-0.1438,-0.1421,-0.1404,-0.1392,-0.1378,-0.1367,-0.1354,-0.1339,-0.1319,-0.1311,-0.1293,-0.1275,-0.1248,-0.1237,-0.1222,-0.1221,-0.1217,-0.1216,-0.1216,-0.1216,-0.1233,-0.1218,-0.1218,-0.1218,-0.1218,-0.1218,0,-0.1437,-0.1425,-0.141,-0.139,-0.1377,-0.1372,-0.1356,-0.1345,-0.1329,-0.1313,-0.1299,-0.1278,-0.126,-0.1244,-0.1225,-0.1216,-0.1213,-0.1212,-0.1212,-0.121,-0.1218,-0.1222,-0.1215,-0.1215,-0.1215,-0.1215,-0.1215,-0.1215,-0.1429,-0.1411,-0.1403,-0.1379,-0.1368,-0.135,-0.1341,-0.1328,-0.1316,-0.1294,-0.1279,-0.1269,-0.1253,-0.1234,-0.1217,-0.1213,-0.1206,-0.1206,-0.1201,-0.1209,-0.1209,-0.121,-0.1214,-0.1205,-0.1205,-0.1194,-0.1194,-0.1194]},{"header":{"parameterUnit":"m.s-1","parameterCategory":1,"la1":30.2991,"la2":30.254,"lo1":-89.0895,"lo2":-89.0444,"dy":0.0017,"dx":0.0017,"nx":28,"ny":28,"refTime":"2026-02-10T09:00:00:Z","depth":0,"parameterNumber":3,"parameterNumberName":"V-component_of_WINDS"},"data":[0,0,0,0,0,0,0,0,0,0,0,0,0,0,0,0,0,0,0,0,0,0,0,0,0,0,0,0,0,0,0,0,0,0,0,0,0,0,0,0,0,0,0,0,0,0,0,0,0,0,0,0,0,0,0,0,0,0,1.6735,1.6735,0,1.6733,1.6733,1.6733,1.6716,1.6716,1.6715,1.6715,1.6712,1.6713,1.6713,0,0,0,0,0,0,0,0,0,0,0,0,0,1.6724,1.6725,1.6735,1.6735,1.6735,1.6733,1.6733,1.6733,1.6716,1.6716,1.6715,1.6715,1.6712,1.6712,1.6713,0,0,0,0,0,0,0,0,0,0,0,0,0,1.6726,1.6725,1.6735,1.6726,1.6726,1.6733,1.6733,1.6733,1.6716,1.6716,1.6715,1.6714,1.6712,1.6712,1.6713,1.6728,0,0,1.6714,1.6715,0,0,0,0,0,0,0,0,1.6726,1.6727,1.6728,1.6727,1.6726,1.6724,1.6728,1.6731,1.6716,1.672,1.6715,1.6714,1.6717,1.6717,1.6718,1.6728,1.6728,1.6714,1.6715,1.6715,1.6715,0,0,0,0,0,0,0,1.6726,1.6727,1.6734,1.6728,1.6727,1.6723,1.6722,1.6729,1.6722,1.6719,1.6718,1.6718,1.6716,1.6717,1.6717,1.6728,1.6714,1.6715,1.6715,1.6715,1.6752,1.6752,0,0,0,0,0,0,1.6727,1.6727,1.6734,1.6734,1.6725,1.6723,1.6723,1.6725,1.6722,1.672,1.6719,1.6717,1.6717,1.6717,1.6717,1.6736,1.6715,1.6715,1.6716,1.6751,1.6752,1.6752,0,0,0,0,0,0,1.6727,1.6728,1.6734,1.673,1.6731,1.6724,1.6727,1.6726,1.6727,1.6721,1.672,1.6721,1.6716,1.6717,1.6726,1.6735,1.6715,1.6716,1.675,1.6751,1.6752,1.6772,0,0,0,0,0,0,1.6727,1.6728,1.6734,1.673,1.6731,1.6743,1.6728,1.6726,1.6728,1.6726,1.6723,1.6722,1.6716,1.6725,1.6726,1.6736,1.6716,1.6749,1.6751,1.6752,1.677,1.6773,1.6776,0,0,0,0,0,1.6727,1.6739,1.6734,1.6735,1.6738,1.6743,1.6744,1.6737,1.6728,1.6734,1.6731,1.6722,1.6734,1.6726,1.6727,1.6737,1.6749,1.675,1.6752,1.6769,1.6773,1.6776,0,0,0,0,0,0,1.6743,1.6738,1.6733,1.6745,1.6745,1.6741,1.6748,1.6741,1.6743,1.6741,1.6732,1.6731,1.6742,1.674,1.6732,1.6752,1.674,1.6742,1.6753,1.6756,1.6759,1.6759,1.6717,0,0,0,0,0,1.6749,1.6754,1.6749,1.676,1.676,1.6754,1.6756,1.6751,1.675,1.675,1.6747,1.6747,1.6751,1.6753,1.6756,1.677,1.6769,1.6777,1.678,1.6782,1.6784,1.6792,1.6796,1.6758,1.6757,1.6757,0,0,1.6759,1.6757,1.6761,1.6763,1.6763,1.6768,1.6754,1.676,1.6764,1.6751,1.676,1.6758,1.6757,1.6769,1.6773,1.6767,1.6795,1.6784,1.6786,1.6787,1.6794,1.6798,1.6801,1.6759,1.6758,1.6758,0,0,1.6782,1.678,1.679,1.6789,1.6789,1.6785,1.6787,1.6784,1.6782,1.6791,1.6781,1.6786,1.6792,1.6793,1.6793,1.6817,1.6809,1.6818,1.6833,1.6841,1.6844,1.6847,1.6856,1.6859,1.682,1.682,1.682,0,1.6795,1.6803,1.6795,1.6803,1.6804,1.6793,1.6802,1.6802,1.6803,1.6804,1.6797,1.6806,1.6804,1.6816,1.6822,1.6823,1.6826,1.6818,1.6844,1.6847,1.6849,1.6858,1.6861,1.6821,1.6821,1.6821,1.6821,0,1.682,1.6826,1.6833,1.6834,1.6837,1.6845,1.6839,1.6842,1.6837,1.6834,1.6843,1.6841,1.6844,1.6846,1.6841,1.6858,1.6854,1.6846,1.6834,1.6854,1.6862,1.6865,1.6823,1.6822,1.6822,1.6821,0,0,1.6853,1.685,1.6853,1.6854,1.6852,1.6857,1.6865,1.6868,1.6871,1.6872,1.6879,1.6885,1.6878,1.6879,1.6873,1.688,1.69,1.6871,1.6871,1.6877,1.6919,1.6926,1.693,1.6894,1.6895,1.6895,1.692,0,1.6875,1.6889,1.6882,1.6897,1.6903,1.6892,1.6899,1.6899,1.6896,1.6901,1.6898,1.6903,1.6892,1.6893,1.6899,1.6896,1.6908,1.6894,1.6901,1.6901,1.6902,1.6934,1.6941,1.6963,1.6923,1.6923,1.6923,0,1.6902,1.6905,1.692,1.6919,1.6921,1.6927,1.693,1.6935,1.6935,1.6932,1.6934,1.6927,1.6935,1.6923,1.6934,1.6925,1.6927,1.6926,1.6927,1.6928,1.6914,1.6936,1.697,1.6974,1.6928,1.6928,1.6927,0,1.6926,1.6933,1.6943,1.6944,1.6942,1.6947,1.6947,1.6946,1.6949,1.6951,1.6953,1.6956,1.6958,1.6961,1.6955,1.6946,1.6967,1.6954,1.6966,1.6966,1.6971,1.6971,1.7007,1.6972,1.6972,1.6972,1.6972,0,1.6952,1.6962,1.6954,1.696,1.6972,1.6964,1.6975,1.6973,1.6973,1.6979,1.697,1.6976,1.6968,1.6973,1.6968,1.6979,1.6979,1.6978,1.6977,1.6979,1.6979,1.6981,1.6979,1.6973,1.6972,1.6972,1.6972,0,1.698,1.6975,1.6986,1.6983,1.6983,1.6991,1.6989,1.6995,1.6992,1.7,1.7001,1.6996,1.7002,1.6997,1.7002,1.6999,1.7013,1.7009,1.7013,1.7012,1.7024,1.7024,1.7063,1.7068,1.7029,1.703,1.703,0,1.6997,1.7004,1.7003,1.7007,1.7007,1.7013,1.7015,1.7009,1.7012,1.7013,1.7019,1.7024,1.7027,1.7037,1.7034,1.7038,1.7034,1.7048,1.7035,1.7037,1.7035,1.7035,1.7036,1.7051,1.7051,1.7052,1.7052,0,1.7028,1.7025,1.703,1.7034,1.7037,1.704,1.7042,1.7045,1.7038,1.7043,1.7048,1.7051,1.7057,1.7062,1.7065,1.7065,1.7058,1.7056,1.7059,1.7062,1.7064,1.7064,1.7021,1.7055,1.7055,1.7055,1.7055,1.7054,1.7052,1.7058,1.7059,1.7064,1.7065,1.7067,1.7073,1.707,1.7075,1.708,1.7075,1.7083,1.7083,1.7087,1.7087,1.7093,1.7087,1.7091,1.7092,1.7094,1.7096,1.7063,1.7093,1.7093,1.7093,1.7093,1.7093,0,1.7083,1.7083,1.7088,1.7091,1.7096,1.7088,1.709,1.7094,1.7101,1.7102,1.7106,1.7113,1.7118,1.7116,1.712,1.7126,1.7122,1.7127,1.7127,1.7127,1.71,1.7098,1.713,1.713,1.713,1.713,1.713,1.713,1.71,1.7111,1.7108,1.712,1.7119,1.7127,1.7129,1.7131,1.7132,1.714,1.7144,1.7143,1.7143,1.7147,1.7152,1.7151,1.7153,1.7159,1.7157,1.7132,1.7129,1.7125,1.7123,1.716,1.716,1.7184,1.7184,1.7184]}]]